This demonstration page uses our WeatherBlox Daily Observations layout. Learn more.

Hourly Observations for July 28, 2019

Temp ( °F °C ) Dew Point ( °F °C ) Humidity (%) Winds ( mph kmh ) Pressure ( in mb ) Visibility ( mi km ) Precip ( " mm )
12:15 am 00:15 Clear 75 23.9 61 16 61 61 SSE 9 15 29.91 1013 10 16.09344 0 0
12:35 am 00:35 Clear 75 23.8 60 15.7 61 61 SSE 9 15 29.88 1012 10 16.09344 0 0
12:55 am 00:55 Clear 75 23.7 60 15.8 61 61 S 9 15 29.88 1012 10 16.09344 0 0
1:15 am 01:15 Clear 75 24 60 15.7 60 60 S 10 17 29.88 1012 10 16.09344 0 0
1:35 am 01:35 Clear 75 23.8 60 15.7 61 61 S 8 13 29.88 1012 10 16.09344 0 0
1:55 am 01:55 Mostly Cloudy 74 23.4 61 16 63 63 S 7 11 29.88 1012 10 16.09344 0 0
2:15 am 02:15 Cloudy 74 23.5 61 16 63 63 SW 6 9 29.88 1012 10 16.09344 0 0
2:35 am 02:35 Cloudy 73 23 61 16.2 66 66 SSW 7 11 29.91 1013 10 16.09344 0 0
2:55 am 02:55 Mostly Cloudy 73 22.7 61 16.2 67 67 SSW 6 9 29.91 1013 10 16.09344 0 0
3:15 am 03:15 Partly Cloudy 73 23 61 15.9 64 64 S 9 15 29.91 1013 10 16.09344 0 0
3:35 am 03:35 Clear 73 23 61 16 65 65 S 7 11 29.85 1011 10 16.09344 0 0
3:55 am 03:55 Clear 72 22.1 62 16.4 70 70 SSE 3 6 29.88 1012 10 16.09344 0 0
4:15 am 04:15 Partly Cloudy 70 21.1 64 17.5 80 80 SSE 3 6 29.88 1012 10 16.09344 0 0
4:35 am 04:35 Mostly Cloudy with Light Rain 69 20.5 64 17.9 85 85 Calm 29.85 1011 10 16.09344 0.01 0.254
4:55 am 04:55 Mostly Cloudy 70 21.2 64 17.5 80 80 SSE 6 9 29.85 1011 10 16.09344 0.01 0.254
5:15 am 05:15 Partly Cloudy 69 20.7 64 17.5 82 82 SSE 7 11 29.85 1011 10 16.09344 0 0
5:35 am 05:35 Partly Cloudy with Rain 69 20.6 64 17.6 83 83 SSE 9 15 29.85 1011 10 16.09344 0 0
5:55 am 05:55 Partly Cloudy 69 20.6 63 17.3 81 81 SSE 5 7 29.85 1011 10 16.09344 0 0
6:15 am 06:15 Mostly Cloudy 69 20.7 63 17 79 79 S 6 9 29.85 1011 10 16.09344 0 0
6:35 am 06:35 Cloudy with Nearby Thunderstorms 69 20.5 63 17.2 81 81 SSE 7 11 29.85 1011 10 16.09344 0 0
6:55 am 06:55 Mostly Cloudy 69 20.5 63 17 80 80 SSE 8 13 29.85 1011 10 16.09344 0 0
7:15 am 07:15 Partly Cloudy 69 20.8 62 16.5 77 77 S 13 20 29.85 1011 10 16.09344 0 0
7:35 am 07:35 Sunny 70 21.1 61 16.3 74 74 S 13 20 29.85 1011 10 16.09344 0 0
7:55 am 07:55 Sunny 71 21.5 62 16.4 73 73 S 12 19 29.85 1011 10 16.09344 0 0
8:15 am 08:15 Sunny 71 21.5 62 16.5 73 73 S 10 17 29.85 1011 10 16.09344 0 0
8:35 am 08:35 Sunny 71 21.5 62 16.5 73 73 S 10 17 29.85 1011 10 16.09344 0 0
8:55 am 08:55 Mostly Cloudy with Nearby Thunderstorms 71 21.5 62 16.7 74 74 SSE 10 17 29.85 1011 10 16.09344 0 0
9:15 am 09:15 Mostly Cloudy 72 22.1 63 17 73 73 S 12 19 29.85 1011 10 16.09344 0 0
9:35 am 09:35 Mostly Cloudy 73 22.6 63 17.2 72 72 S 12 19 29.83 1010 10 16.09344 0 0
9:55 am 09:55 Partly Cloudy 75 23.7 63 17.4 68 68 S 14 22 29.83 1010 10 16.09344 0 0
10:15 am 10:15 Partly Cloudy 75 23.8 63 17 66 66 S 13 20 29.8 1009 10 16.09344 0 0
10:35 am 10:35 Mostly Cloudy 75 23.7 63 17.1 67 67 S 10 17 29.8 1009 10 16.09344 0 0
10:55 am 10:55 Partly Cloudy 77 25.1 64 17.6 63 63 S 13 20 29.83 1010 10 16.09344 0 0
11:15 am 11:15 Sunny 77 25.2 63 17.1 61 61 S 13 20 29.8 1009 10 16.09344 0 0
11:35 am 11:35 Sunny 77 25.1 64 17.5 63 63 SSW 12 19 29.83 1010 10 16.09344 0 0
11:55 am 11:55 Mostly Cloudy 77 25.1 63 17.4 62 62 SW 9 15 29.83 1010 10 16.09344 0 0
12:15 pm 12:15 Cloudy with Rain 77 25 65 18.4 67 67 SSW 6 9 29.83 1010 7 11.265408 0 0
12:35 pm 12:35 Cloudy 78 25.3 68 20 73 73 WSW 5 7 29.83 1010 10 16.09344 0.01 0.254
12:55 pm 12:55 Cloudy 80 26.5 67 19.2 64 64 SW 6 9 29.8 1009 10 16.09344 0.01 0.254
1:15 pm 13:15 Cloudy 81 27.4 65 18.6 59 59 WSW 7 11 29.8 1009 10 16.09344 0 0
1:35 pm 13:35 Mostly Cloudy 82 28 65 18.4 56 56 SSW 7 11 29.8 1009 10 16.09344 0 0
1:55 pm 13:55 Mostly Cloudy 81 27.2 65 18.4 59 59 SW 7 11 29.77 1008 10 16.09344 0 0
2:15 pm 14:15 Mostly Cloudy 83 28.3 65 18.5 55 55 SSW 9 15 29.77 1008 10 16.09344 0 0
2:35 pm 14:35 Partly Cloudy 83 28.6 67 19.6 58 58 W 5 7 29.8 1009 10 16.09344 0 0
2:55 pm 14:55 Sunny 82 28 67 19.3 59 59 W 5 7 29.8 1009 10 16.09344 0 0
3:15 pm 15:15 Sunny 83 28.5 66 18.7 55 55 WSW 6 9 29.77 1008 10 16.09344 0 0
3:35 pm 15:35 Sunny 84 28.7 67 19.3 57 57 WNW 7 11 29.8 1009 10 16.09344 0 0
3:55 pm 15:55 Sunny 84 28.9 68 19.9 58 58 WNW 7 11 29.8 1009 10 16.09344 0 0
4:15 pm 16:15 Sunny 85 29.2 68 19.9 57 57 WNW 8 13 29.8 1009 10 16.09344 0 0
4:35 pm 16:35 Sunny 85 29.5 69 20.8 60 60 WNW 8 13 29.8 1009 10 16.09344 0 0
4:55 pm 16:55 Sunny 85 29.4 70 20.9 60 60 WNW 5 7 29.8 1009 10 16.09344 0 0
5:15 pm 17:15 Sunny 85 29.5 70 21.1 61 61 NW 8 13 29.8 1009 10 16.09344 0 0
5:35 pm 17:35 Sunny 85 29.6 70 21.1 60 60 NW 7 11 29.8 1009 10 16.09344 0 0
5:55 pm 17:55 Sunny 85 29.6 71 21.5 62 62 NW 3 6 29.8 1009 10 16.09344 0 0
6:15 pm 18:15 Sunny 85 29.5 71 21.6 63 63 N 5 7 29.8 1009 10 16.09344 0 0
6:35 pm 18:35 Sunny 85 29.3 71 21.6 63 63 NNW 5 7 29.8 1009 10 16.09344 0 0
6:55 pm 18:55 Sunny 85 29.2 71 21.6 64 64 Calm 29.8 1009 10 16.09344 0 0
7:15 pm 19:15 Sunny 84 29 72 22 66 66 Calm 29.8 1009 10 16.09344 0 0
7:35 pm 19:35 Sunny 83 28.5 72 22.3 69 69 NNE 3 6 29.8 1009 10 16.09344 0 0
7:55 pm 19:55 Sunny 83 28.1 73 22.8 73 73 Calm 29.8 1009 10 16.09344 0 0
8:15 pm 20:15 Sunny 82 27.7 74 23.1 76 76 Calm 29.8 1009 10 16.09344 0 0
8:35 pm 20:35 Sunny 81 27.3 72 22.2 74 74 Calm 29.8 1009 10 16.09344 0 0
8:55 pm 20:55 Sunny 79 26.1 72 22.4 80 80 Calm 29.83 1010 10 16.09344 0 0
9:15 pm 21:15 Clear 77 25 73 23 89 89 Calm 29.85 1011 10 16.09344 0 0
9:35 pm 21:35 Clear 76 24.2 73 22.8 92 92 Calm 29.85 1011 10 16.09344 0 0
9:55 pm 21:55 Clear 75 23.7 73 22.5 93 93 Calm 29.85 1011 10 16.09344 0 0
10:15 pm 22:15 Clear 74 23.1 72 22.2 95 95 NW 3 6 29.85 1011 10 16.09344 0 0
10:35 pm 22:35 Clear 74 23.6 72 22 91 91 NW 3 6 29.88 1012 10 16.09344 0 0
10:55 pm 22:55 Clear 72 22.3 71 21.5 95 95 NNW 3 6 29.91 1013 10 16.09344 0 0
11:15 pm 23:15 Clear 72 22.4 71 21.5 95 95 NNW 5 7 29.91 1013 10 16.09344 0 0
11:35 pm 23:35 Clear 71 21.7 70 21.2 97 97 NNW 3 6 29.91 1013 7 11.265408 0 0
11:55 pm 23:55 Clear 72 22 71 21.6 98 98 NNW 6 9 29.94 1014 7 11.265408 0 0

Powered by AerisWeather